[[{"header":{"parameterUnit":"m.s-1","parameterCategory":1,"la1":30.2992,"la2":30.254,"lo1":-89.0895,"lo2":-89.0443,"dy":0.0025,"dx":0.0025,"nx":19,"ny":19,"refTime":"2026-05-09T09:00:00:Z","depth":0,"parameterNumber":2,"parameterNumberName":"U-component_of_WINDS"},"data":[0,0,0,-1.3712,-1.3714,-1.3802,-1.3802,-1.3914,-1.3915,0,0,0,0,0,0,0,0,0,0,0,-1.3685,-1.3685,-1.3712,-1.3714,-1.3802,-1.3803,-1.3913,-1.3915,0,0,0,0,0,0,0,0,0,0,0,-1.3684,-1.3685,-1.3686,-1.3715,-1.3802,-1.3803,-1.3913,-1.3848,0,0,0,0,0,0,0,0,0,0,-1.3763,-1.3735,-1.3685,-1.3686,-1.3715,-1.3802,-1.3803,-1.3844,-1.3852,-1.3873,0,-1.389,0,-1.3904,-1.3922,-1.3922,0,0,0,-1.3716,-1.3729,-1.3754,-1.3686,-1.3716,-1.3802,-1.3763,-1.3849,-1.3857,-1.3882,-1.3892,-1.3896,-1.3906,-1.3922,-1.3923,-1.4039,-1.4039,0,0,-1.3711,-1.37,-1.3748,-1.3759,-1.3744,-1.376,-1.3766,-1.3853,-1.3863,-1.3892,-1.3899,-1.3908,-1.3923,-1.3924,-1.4038,-1.4039,0,0,0,-1.3696,-1.3696,-1.3719,-1.3755,-1.377,-1.3763,-1.3769,-1.386,-1.3868,-1.39,-1.3909,-1.3924,-1.3925,-1.4038,-1.4039,-1.405,0,0,0,-1.3693,-1.3687,-1.3717,-1.3711,-1.3769,-1.3816,-1.3773,-1.3862,-1.3872,-1.3909,-1.3924,-1.3926,-1.4037,-1.4038,-1.4049,-1.4058,0,0,0,-1.368,-1.3686,-1.3698,-1.371,-1.3747,-1.3815,-1.3828,-1.3864,-1.3878,-1.3922,-1.3927,-1.4037,-1.4038,-1.4048,-1.4056,-1.4085,0,0,0,-1.3662,-1.3707,-1.3698,-1.3752,-1.3747,-1.3821,-1.3828,-1.3884,-1.3924,-1.3924,-1.4037,-1.4039,-1.4047,-1.4055,-1.4084,-1.4108,-1.4117,0,0,-1.3712,-1.3713,-1.3746,-1.374,-1.3813,-1.3809,-1.3884,-1.3932,-1.3947,-1.4008,-1.4011,-1.4049,-1.4056,-1.4085,-1.417,-1.4177,0,0,0,-1.3758,-1.3781,-1.3803,-1.384,-1.3877,-1.391,-1.3947,-1.3965,-1.4017,-1.3975,-1.4068,-1.4072,-1.409,-1.4102,-1.4108,-1.4124,-1.4044,-1.4043,-1.4043,-1.3813,-1.383,-1.3886,-1.3913,-1.3949,-1.3988,-1.4019,-1.4049,-1.4056,-1.4078,-1.4096,-1.4145,-1.4159,-1.4164,-1.418,-1.411,-1.411,-1.411,-1.411,-1.3889,-1.3926,-1.3934,-1.3991,-1.4009,-1.4057,-1.4096,-1.4099,-1.4148,-1.4133,-1.4149,-1.4131,-1.4171,-1.4186,-1.4111,-1.4111,-1.4111,-1.4111,-1.411,-1.3928,-1.3948,-1.3968,-1.4024,-1.4065,-1.4092,-1.4139,-1.4154,-1.4168,-1.4184,-1.4205,-1.4205,-1.4207,-1.4193,-1.4193,-1.4194,-1.4194,-1.4194,-1.4194,-1.3959,-1.3982,-1.4019,-1.4062,-1.4088,-1.4125,-1.4164,-1.4191,-1.4224,-1.4232,-1.4232,-1.4237,-1.4171,-1.4154,-1.4197,-1.4196,-1.4196,-1.4196,-1.4195,-1.403,-1.4017,-1.4073,-1.4099,-1.4153,-1.4193,-1.4212,-1.4265,-1.4289,-1.4311,-1.4313,-1.4262,-1.4263,-1.4259,-1.4245,-1.4309,-1.4309,-1.4309,-1.4309,-1.4063,-1.4065,-1.4126,-1.4167,-1.4209,-1.4232,-1.4297,-1.4329,-1.436,-1.4376,-1.4369,-1.4352,-1.4347,-1.4351,-1.4345,-1.4332,-1.4417,-1.4417,-1.4417,-1.4108,-1.4115,-1.4166,-1.4196,-1.4239,-1.4276,-1.4337,-1.4385,-1.4417,-1.4422,-1.4389,-1.4385,-1.4358,-1.4348,-1.4351,-1.434,-1.4317,0,0]},{"header":{"parameterUnit":"m.s-1","parameterCategory":1,"la1":30.2992,"la2":30.254,"lo1":-89.0895,"lo2":-89.0443,"dy":0.0025,"dx":0.0025,"nx":19,"ny":19,"refTime":"2026-05-09T09:00:00:Z","depth":0,"parameterNumber":3,"parameterNumberName":"V-component_of_WINDS"},"data":[0,0,0,3.514,3.5143,3.5271,3.5272,3.5436,3.5437,0,0,0,0,0,0,0,0,0,0,0,3.5103,3.5104,3.514,3.5143,3.5271,3.5272,3.5436,3.5437,0,0,0,0,0,0,0,0,0,0,0,3.5103,3.5104,3.5106,3.5144,3.5271,3.5272,3.5435,3.5338,0,0,0,0,0,0,0,0,0,0,3.5214,3.5181,3.5104,3.5106,3.5144,3.5271,3.5272,3.5333,3.5344,3.5378,0,3.541,0,3.5427,3.5449,3.5449,0,0,0,3.5142,3.5172,3.5206,3.5106,3.5146,3.5271,3.5213,3.5339,3.5352,3.5393,3.5412,3.5418,3.5429,3.545,3.545,3.5657,3.5658,0,0,3.5135,3.5127,3.5197,3.5214,3.5195,3.5209,3.5217,3.5347,3.5367,3.5413,3.5422,3.5432,3.5451,3.5452,3.5656,3.5657,0,0,0,3.5115,3.5122,3.5152,3.5207,3.523,3.5213,3.5222,3.5361,3.5372,3.5424,3.5434,3.5452,3.5454,3.5654,3.5656,3.57,0,0,0,3.5111,3.511,3.5149,3.5145,3.5228,3.5298,3.5234,3.5363,3.5378,3.5433,3.5452,3.5455,3.5653,3.5655,3.5697,3.5722,0,0,0,3.5094,3.5108,3.5128,3.5145,3.52,3.5296,3.5314,3.5367,3.5384,3.5449,3.5456,3.5653,3.5655,3.5694,3.5717,3.5776,0,0,0,3.5074,3.5163,3.5128,3.5232,3.5199,3.5323,3.5313,3.5405,3.5466,3.5453,3.5653,3.5656,3.5692,3.5714,3.5772,3.5824,3.5845,0,0,3.5182,3.5176,3.5237,3.521,3.5338,3.5304,3.5438,3.5501,3.5513,3.5608,3.5613,3.5698,3.5717,3.5775,3.5963,3.5979,0,0,0,3.5269,3.5313,3.5349,3.5408,3.5459,3.5506,3.5549,3.5572,3.5654,3.5561,3.5735,3.5746,3.5781,3.5806,3.582,3.585,3.5667,3.5667,3.5667,3.5409,3.5423,3.5526,3.5556,3.5613,3.5658,3.5706,3.5745,3.5739,3.5781,3.5809,3.5921,3.5951,3.5961,3.5993,3.5837,3.5837,3.5837,3.5837,3.5568,3.5634,3.5628,3.5726,3.574,3.5822,3.587,3.5864,3.5943,3.5901,3.5932,3.5885,3.5979,3.6007,3.5841,3.584,3.584,3.5839,3.5839,3.5662,3.5696,3.5725,3.5813,3.588,3.5906,3.5983,3.5992,3.6001,3.6032,3.6064,3.6063,3.6064,3.6046,3.6047,3.6047,3.6048,3.6048,3.6048,3.5748,3.5779,3.5843,3.5908,3.5948,3.6002,3.605,3.609,3.6136,3.6137,3.6137,3.6129,3.5986,3.595,3.6054,3.6053,3.6052,3.6052,3.6051,3.5905,3.5872,3.5971,3.6012,3.6089,3.6156,3.6168,3.6248,3.6282,3.632,3.6306,3.6199,3.6192,3.6181,3.6152,3.6302,3.6302,3.6303,3.6303,3.5984,3.5983,3.6088,3.6153,3.6218,3.6239,3.6352,3.6391,3.6425,3.6448,3.6427,3.6389,3.6377,3.6378,3.6363,3.6335,3.6529,3.653,3.653,3.6083,3.6088,3.6182,3.6218,3.628,3.6333,3.6439,3.6514,3.6546,3.6539,3.6466,3.6456,3.6394,3.6373,3.6363,3.6339,3.6289,0,0]}]]